Regional Weather Roundup
Issued by NWS State College, PA

Home | Current Version | Previous Version | Text Only | Print | Product List | Glossary On
Versions: 1 2 3 4 5 6 7 8 9 10 11 12 13 14 15 16 17 18 19 20 21 22 23 24 25 26 27 28 29 30 31 32 33 34 35 36 37 38 39 40 41 42 43 44 45 46 47 48 49 50
000
ASUS41 KCTP 010403
RWRCTP

REGIONAL WEATHER ROUNDUP
NATIONAL WEATHER SERVICE STATE COLLEGE PA
1200 AM EDT WED JUN 01 2016

Note: "fair" indicates few or no clouds below 12,000 feet with no
significant weather and/or obstructions to visibility.

* = STATION THAT DOES NOT REPORT PRECIPITATION /E.G. RAIN...SNOW...ETC/
    THUNDER OR FOG.

PAZ002>004-007>009-013>016-020>023-029>032-010500-
WESTERN PENNSYLVANIA

CITY           SKY/WX    TMP DP  RH WIND       PRES   REMARKS
ERIE           CLEAR     61  53  75 CALM      30.05R
MEADVILLE      PTCLDY    60  32  34 NE3       30.06S
FRANKLIN*      PTCLDY    57  48  72 CALM      30.08S
NEW CASTLE     FAIR      61  52  72 CALM      30.05S
BEAVER COUNTY  NOT AVBL
BUTLER*        CLEAR     63  54  72 CALM      30.07S
PITTSBURGH INT PTCLDY    73  53  49 NE3       30.03S
PITTSBURGH     CLEAR     72  53  51 N5        30.03S
INDIANA*       PTCLDY    64  59  82 CALM      30.08S
LATROBE        CLEAR     66  64  94 N3        30.04S
WASHINGTON CO* CLEAR     70  57  64 N5        30.04R
$$

PAZ004>006-010>012-017>019-024>028-033>037-041-042-045-046-049>053-010500-
CENTRAL PENNSYLVANIA

CITY           SKY/WX    TMP DP  RH WIND       PRES   REMARKS
BRADFORD       PTCLDY    50  46  86 CALM      30.09S
DUBOIS         CLOUDY    63  48  58 E5        30.06S
CLEARFIELD     CLOUDY    67  51  56 N3        30.06S
JOHNSTOWN      CLEAR     66  51  58 NE7       30.07S
ALTOONA        CLEAR     64  55  72 VRB3      30.05R
STATE COLLEGE  CLOUDY    67  55  66 CALM      30.04S
WILLIAMSPORT   CLOUDY    69  57  65 NW3       30.01R
SELINSGROVE    CLOUDY    69  64  84 CALM      30.01R
FT INDIANTOWN  PTCLDY    65  61  86 CALM      29.99S
CAPITAL CITY   CLOUDY    69  60  73 SW5       29.99S
HARRISBURG     CLOUDY    72  61  68 CALM      29.98S
YORK           CLOUDY    63  60  90 CALM      30.00S
$$

PAZ038>040-043-044-047-048-054-055-060>062-067>071-010500-
EASTERN PENNSYLVANIA

CITY           SKY/WX    TMP DP  RH WIND       PRES   REMARKS
SCRANTON       MOCLDY    66  56  70 E6        30.03R
MOUNT POCONO   NOT AVBL
ALLENTOWN      PTCLDY    68  60  75 NW3       29.99R
QUAKERTOWN*    CLOUDY    64  59  82 CALM      30.00S
READING        CLEAR     70  61  73 CALM      29.98R
LANCASTER      CLOUDY    69  58  67 CALM      29.99R
COATESVILLE    PTCLDY    68  55  64 W6        30.02R
POTTSTOWN      PTCLDY    66  60  81 CALM      30.00S
BLUE BELL      CLEAR     63  61  94 CALM      29.98S
DOYLESTOWN     CLEAR     66  60  81 CALM      29.98S
WILLOW GROVE   NOT AVBL
NORTH PHILA    CLEAR     74  67  78 CALM      29.99F
PHILADELPHIA   MOCLDY    73  64  73 SW5       29.99S
$$



USA.gov is the U.S. government's official web portal to all federal, state and local government web resources and services.